Zurück zum Katalog

STARLINK-31442

AktivKommunikationVLEO
NORAD 59859·PAYLOAD·🇺🇸 United States

Gestartet May 24, 2024 von Cape Canaveral Space Force Station

Loading…

Nächste Überflüge (nächste 24 Stunden)

TLE

AktuellSource: CelesTrak SupGP

Epoche: Sep 14, 2026, 20:46 UTC

1 59859C 24098B   26257.86576389 -.00016773  00000+0 -60765-3 0  2572
2 59859  43.0006 293.5286 0001366 266.4428  65.6663 15.27580196    11

Verfolge STARLINK-31442 in Echtzeit mit AllMySat

Download on the App Store